SB KEPS @ AMSAT $ORB07313.O Orbital Elements 07313.OSCAR
HR AMSAT ORBITAL ELEMENTS FOR OSCAR SATELLITES FROM WA5QGD FORT WORTH,TX November 9, 2007 Send Subscribe/unsubscribe to KEPS at http://www.amsat.org/mailman/listinfo/keps BID: ORB07313.O TO ALL RADIO AMATEURS BT
Satellite: AO-07 Catalog number: 07530 Epoch time: 07311.71335854 Element set: 0022 Inclination: 101.4987 deg RA of node: 345.4120 deg Eccentricity: 0.0011969 Arg of perigee: 337.0811 deg Mean anomaly: 022.9721 deg Mean motion: 12.53572774 rev/day Decay rate: -2.8e-07 rev/day^2 Epoch rev: 50910 Checksum: 275
Satellite: AO-10 Catalog number: 14129 Epoch time: 07310.85145210 Element set: 0441 Inclination: 026.0168 deg RA of node: 247.3642 deg Eccentricity: 0.6052211 Arg of perigee: 070.9460 deg Mean anomaly: 342.8776 deg Mean motion: 02.05871204 rev/day Decay rate: -7.4e-07 rev/day^2 Epoch rev: 18350 Checksum: 264
Satellite: UO-11 Catalog number: 14781 Epoch time: 07311.62927107 Element set: 0516 Inclination: 098.1800 deg RA of node: 337.0276 deg Eccentricity: 0.0010245 Arg of perigee: 070.7673 deg Mean anomaly: 289.4647 deg Mean motion: 14.79589986 rev/day Decay rate: -1.84e-06 rev/day^2 Epoch rev: 27094 Checksum: 329
Satellite: RS-15 Catalog number: 23439 Epoch time: 07311.92954260 Element set: 0079 Inclination: 064.8139 deg RA of node: 134.4627 deg Eccentricity: 0.0154792 Arg of perigee: 164.7222 deg Mean anomaly: 195.8454 deg Mean motion: 11.27552878 rev/day Decay rate: -3.9e-07 rev/day^2 Epoch rev: 52990 Checksum: 333
Satellite: FO-29 Catalog number: 24278 Epoch time: 07312.85636004 Element set: 631 Inclination: 098.5723 deg RA of node: 253.1932 deg Eccentricity: 0.0351343 Arg of perigee: 068.6036 deg Mean anomaly: 295.2202 deg Mean motion: 13.52934205 rev/day Decay rate: 5.2e-07 rev/day^2 Epoch rev: 55446 Checksum: 294
Satellite: SO-33 Catalog number: 25509 Epoch time: 07311.83983700 Element set: 58 Inclination: 031.4303 deg RA of node: 133.5452 deg Eccentricity: 0.0356071 Arg of perigee: 243.2130 deg Mean anomaly: 113.1635 deg Mean motion: 14.28183020 rev/day Decay rate: -1.46e-06 rev/day^2 Epoch rev: 47180 Checksum: 255
Satellite: AO-40 Catalog number: 26609 Epoch time: 07310.86476474 Element set: 0965 Inclination: 006.9211 deg RA of node: 112.3944 deg Eccentricity: 0.7935624 Arg of perigee: 020.6658 deg Mean anomaly: 358.5925 deg Mean motion: 01.25583636 rev/day Decay rate: 8.0e-08 rev/day^2 Epoch rev: 03223 Checksum: 316
Satellite: VO-52 Catalog number: 28650 Epoch time: 07311.78205166 Element set: 0773 Inclination: 097.8181 deg RA of node: 019.1749 deg Eccentricity: 0.0027648 Arg of perigee: 143.7318 deg Mean anomaly: 216.5753 deg Mean motion: 14.81379466 rev/day Decay rate: 3.25e-06 rev/day^2 Epoch rev: 13567 Checksum: 331
Satellite: PO-63 Catalog number: 29712 Epoch time: 07312.67609952 Element set: 894 Inclination: 097.9069 deg RA of node: 009.7216 deg Eccentricity: 0.0014715 Arg of perigee: 025.8811 deg Mean anomaly: 334.3135 deg Mean motion: 14.79887483 rev/day Decay rate: 5.97e-06 rev/day^2 Epoch rev: 4470 Checksum: 343
/EX SB KEPS @ AMSAT $ORB07313.D Orbital Elements 07313.MICROS
HR AMSAT ORBITAL ELEMENTS FOR THE MICROSATS FROM WA5QGD FORT WORTH,TX November 9, 2007 Send Subscribe/unsubscribe to KEPS at http://www.amsat.org/mailman/listinfo/keps BID: ORB07313.D TO ALL RADIO AMATEURS BT
Satellite: AO-16 Catalog number: 20439 Epoch time: 07311.56264680 Element set: 0174 Inclination: 098.2091 deg RA of node: 298.3097 deg Eccentricity: 0.0011667 Arg of perigee: 116.3354 deg Mean anomaly: 243.9027 deg Mean motion: 14.31774666 rev/day Decay rate: 8.0e-08 rev/day^2 Epoch rev: 92906 Checksum: 315
Satellite: LO-19 Catalog number: 20442 Epoch time: 07311.57712656 Element set: 0099 Inclination: 098.1880 deg RA of node: 307.4365 deg Eccentricity: 0.0012830 Arg of perigee: 116.2056 deg Mean anomaly: 244.0467 deg Mean motion: 14.32014585 rev/day Decay rate: 3.5e-07 rev/day^2 Epoch rev: 92921 Checksum: 290
Satellite: AO-27 Catalog number: 22825 Epoch time: 07311.50576046 Element set: 0822 Inclination: 098.3523 deg RA of node: 275.2811 deg Eccentricity: 0.0008172 Arg of perigee: 193.0839 deg Mean anomaly: 167.0143 deg Mean motion: 14.29222216 rev/day Decay rate: 7.2e-07 rev/day^2 Epoch rev: 73596 Checksum: 295
Satellite: IO-26 Catalog number: 22826 Epoch time: 07311.45838571 Element set: 0522 Inclination: 098.3462 deg RA of node: 276.2464 deg Eccentricity: 0.0008501 Arg of perigee: 190.6040 deg Mean anomaly: 169.4963 deg Mean motion: 14.29468972 rev/day Decay rate: 1.5e-07 rev/day^2 Epoch rev: 73604 Checksum: 314
Satellite: PO-28 Catalog number: 22829 Epoch time: 07312.46360674 Element set: 796 Inclination: 098.3339 deg RA of node: 278.3538 deg Eccentricity: 0.0009965 Arg of perigee: 160.6439 deg Mean anomaly: 199.5128 deg Mean motion: 14.30170939 rev/day Decay rate: -5.6e-07 rev/day^2 Epoch rev: 73643 Checksum: 351
Satellite: GO-32 Catalog number: 25397 Epoch time: 07311.65822572 Element set: 0446 Inclination: 098.3970 deg RA of node: 352.4636 deg Eccentricity: 0.0001564 Arg of perigee: 133.2055 deg Mean anomaly: 226.9273 deg Mean motion: 14.23133373 rev/day Decay rate: 4.7e-07 rev/day^2 Epoch rev: 48456 Checksum: 304
Satellite: MO-46 Catalog number: 26548 Epoch time: 07311.66820084 Element set: 941 Inclination: 064.5556 deg RA of node: 098.7685 deg Eccentricity: 0.0002432 Arg of perigee: 352.2091 deg Mean anomaly: 007.8922 deg Mean motion: 14.83191635 rev/day Decay rate: -1.0e-08 rev/day^2 Epoch rev: 38481 Checksum: 309
Satellite: NO-44 Catalog number: 26931 Epoch time: 07311.86784422 Element set: 0727 Inclination: 067.0521 deg RA of node: 137.3710 deg Eccentricity: 0.0005612 Arg of perigee: 248.8310 deg Mean anomaly: 111.2148 deg Mean motion: 14.29502245 rev/day Decay rate: 8.9e-07 rev/day^2 Epoch rev: 31863 Checksum: 282
Satellite: SO-50 Catalog number: 27607 Epoch time: 07311.61110650 Element set: 0451 Inclination: 064.5605 deg RA of node: 009.5530 deg Eccentricity: 0.0070849 Arg of perigee: 324.6706 deg Mean anomaly: 034.9705 deg Mean motion: 14.71298789 rev/day Decay rate: -7.7e-07 rev/day^2 Epoch rev: 26222 Checksum: 297
Satellite: CO-55 Catalog number: 27844 Epoch time: 07311.51212892 Element set: 0162 Inclination: 098.7197 deg RA of node: 317.8651 deg Eccentricity: 0.0010625 Arg of perigee: 041.1857 deg Mean anomaly: 319.0115 deg Mean motion: 14.20540943 rev/day Decay rate: 3.7e-07 rev/day^2 Epoch rev: 22582 Checksum: 290
Satellite: CO-57 Catalog number: 27848 Epoch time: 07311.55115978 Element set: 117 Inclination: 098.7190 deg RA of node: 317.0518 deg Eccentricity: 0.0010562 Arg of perigee: 043.8203 deg Mean anomaly: 316.3808 deg Mean motion: 14.20356293 rev/day Decay rate: 4.6e-07 rev/day^2 Epoch rev: 22580 Checksum: 298
Satellite: AO-51 Catalog number: 28375 Epoch time: 07311.65013145 Element set: 0954 Inclination: 098.0966 deg RA of node: 343.4657 deg Eccentricity: 0.0084621 Arg of perigee: 107.0909 deg Mean anomaly: 253.9572 deg Mean motion: 14.40585644 rev/day Decay rate: 1.9e-07 rev/day^2 Epoch rev: 17636 Checksum: 321
Satellite: CO-56 Catalog number: 28941 Epoch time: 07311.82108482 Element set: 639 Inclination: 098.1146 deg RA of node: 029.3686 deg Eccentricity: 0.0206083 Arg of perigee: 122.2041 deg Mean anomaly: 239.9197 deg Mean motion: 15.45589483 rev/day Decay rate: 2.5301e-04 rev/day^2 Epoch rev: 9557 Checksum: 329
Satellite: HO-59 Catalog number: 29484 Epoch time: 07312.68849737 Element set: 839 Inclination: 098.2652 deg RA of node: 025.5109 deg Eccentricity: 0.0166928 Arg of perigee: 103.4752 deg Mean anomaly: 258.5120 deg Mean motion: 15.63161577 rev/day Decay rate: 4.4084e-04 rev/day^2 Epoch rev: 6355 Checksum: 346
Satellite: NO-61 Catalog number: 29664 Epoch time: 07312.68404304 Element set: 633 Inclination: 051.6293 deg RA of node: 044.2340 deg Eccentricity: 0.0004006 Arg of perigee: 215.4116 deg Mean anomaly: 144.6628 deg Mean motion: 16.07016133 rev/day Decay rate: 9.4633e-04 rev/day^2 Epoch rev: 5125 Checksum: 266
Satellite: CP4 Catalog number: 31122 Epoch time: 07312.66984645 Element set: 180 Inclination: 098.0721 deg RA of node: 021.1710 deg Eccentricity: 0.0084780 Arg of perigee: 297.0383 deg Mean anomaly: 062.2170 deg Mean motion: 14.55049102 rev/day Decay rate: 5.48e-06 rev/day^2 Epoch rev: 2986 Checksum: 281
Satellite: CP3 Catalog number: 31128 Epoch time: 07311.67017624 Element set: 0176 Inclination: 098.0684 deg RA of node: 019.1866 deg Eccentricity: 0.0101987 Arg of perigee: 303.1150 deg Mean anomaly: 056.0315 deg Mean motion: 14.51880109 rev/day Decay rate: -4.9e-07 rev/day^2 Epoch rev: 02964 Checksum: 284
Satellite: LIBERT Catalog number: 31129 Epoch time: 07312.76039171 Element set: 500 Inclination: 098.0696 deg RA of node: 020.2540 deg Eccentricity: 0.0100931 Arg of perigee: 299.5046 deg Mean anomaly: 059.6114 deg Mean motion: 14.51973074 rev/day Decay rate: 3.35e-06 rev/day^2 Epoch rev: 2978 Checksum: 281
/EX SB KEPS @ AMSAT $ORB07313.W Orbital Elements 07313.WEATHER
HR AMSAT ORBITAL ELEMENTS FOR WEATHER SATELLITES FROM WA5QGD FORT WORTH,TX November 9, 2007 Send Subscribe/unsubscribe to KEPS at http://www.amsat.org/mailman/listinfo/keps BID: ORB07313.W TO ALL RADIO AMATEURS BT
Satellite: NOAA-10 Catalog number: 16969 Epoch time: 07311.93900633 Element set: 0881 Inclination: 098.7404 deg RA of node: 329.1729 deg Eccentricity: 0.0013099 Arg of perigee: 107.1186 deg Mean anomaly: 253.1426 deg Mean motion: 14.27340087 rev/day Decay rate: 8.8e-07 rev/day^2 Epoch rev: 09973 Checksum: 319
Satellite: NOAA-11 Catalog number: 19531 Epoch time: 07311.83131549 Element set: 0913 Inclination: 098.8089 deg RA of node: 039.1821 deg Eccentricity: 0.0011600 Arg of perigee: 346.1703 deg Mean anomaly: 013.9151 deg Mean motion: 14.14853614 rev/day Decay rate: -2.79e-06 rev/day^2 Epoch rev: 98646 Checksum: 297
